RH
84 67 78 88 95 98 74 41 41 40 61 64 54 64 73 81 93 89 94 93 87 68 81 80 82 85 96 96 95 89 95 97 95
93 93 84 80 96 83 87 56 43 74 88 77 69 73 82 90 92 94 98 94 94 91 68 76 87 86 87 87 91 89 94 98 100
97 98 98 94 78 99 84 60 48 83 96 76 74 77 88 89 94 92 94 96 95 82 64 58 71 73 71 77 81 99 97 96 97
97 96 98 98 99 76 88 69 84 90 88 68 76 90 95 92 90 89 92 96 98 80 60 54 46 49 54 72 96 100 99 96 99
98 99 98 99 99 91 83 61 87 93 94 78 60 78 97 93 87 84 93 82 83 85 61 58 93 96 98 99 99 99 94 93 98
100 99 100 99 98 84 78 91 90 91 89 83 55 75 85 86 92 94 86 82 87 99 92 99 99 95 97 96 89 94 98 98 98
100 99 89 98 89 84 92 98 94 88 87 73 58 54 83 87 91 94 95 88 99 99 99 100 100 100 99 99 100 96 99 92 95
97 98 78 80 87 76 94 99 91 66 58 61 60 43 55 77 82 92 91 94 99 99 98 93 92 99 100 98 100 100 99 100 96
79 89 39 41 53 67 74 78 61 58 63 64 59 39 35 48 59 93 94 97 98 100 99 100 99 97 99 99 97 96 100 98 86
54 44 34 29 38 55 62 64 62 64 64 63 58 40 40 49 83 97 94 89 97 99 98 98 99 98 100 88 71 66 86 84 57
46 34 30 28 33 47 59 61 68 71 69 63 55 43 47 54 77 98 96 93 92 92 95 96 94 99 100 94 61 39 39 37 32
33 30 29 27 32 46 57 71 74 74 66 63 54 44 49 56 68 92 98 98 94 90 92 95 97 98 100 74 40 40 38 30 26
28 29 30 27 29 42 58 68 71 70 58 58 51 42 41 46 62 67 71 71 96 96 99 99 95 99 99 42 40 40 33 28 22
26 27 28 31 31 38 59 68 70 62 62 61 56 45 39 43 52 67 71 74 70 76 78 61 57 62 49 46 43 40 34 27 21
24 26 27 31 35 42 58 71 68 59 64 63 60 52 39 35 40 44 51 44 40 45 52 44 44 45 46 46 45 42 35 27 20
28 28 30 32 36 38 45 57 62 69 72 68 70 64 51 41 38 40 42 42 40 41 44 45 46 49 49 48 48 47 39 28 19
40 38 34 35 38 45 51 52 60 76 74 74 71 72 68 64 55 53 53 52 49 48 49 48 49 52 51 49 51 50 42 32 18
42 40 41 40 40 42 47 52 58 60 73 75 65 71 70 65 68 64 63 66 61 57 55 53 54 56 55 53 53 51 44 31 15
44 45 44 43 42 43 46 53 60 68 63 74 77 60 52 65 66 68 69 74 78 80 76 69 66 64 60 59 57 54 47 26 12
49 46 46 45 46 43 44 51 61 65 67 64 62 74 64 53 52 56 66 76 83 88 91 84 78 70 67 65 63 60 50 20 10
Wind_Speed
16 19 22 21 17 17 14 14 15 14 15 15 17 18 20 22 23 23 21 20 17 13 16 17 18 20 22 21 20 18 16 15 13
21 20 20 22 20 17 17 18 18 17 16 15 17 18 19 23 23 22 20 15 16 14 11 14 13 14 15 16 15 13 11 11 18
21 21 21 21 22 21 20 19 18 18 18 16 18 18 21 21 21 19 16 14 12 10 9 11 11 10 9 9 10 13 15 15 16
21 21 21 23 22 20 21 21 19 18 15 15 17 20 20 17 15 15 12 8 8 6 3 4 9 10 11 12 17 18 18 17 19
20 21 23 23 21 22 21 21 19 18 17 12 16 18 19 17 13 11 9 2 3 5 5 11 16 17 18 19 18 18 18 17 17
21 21 22 22 22 23 22 20 19 18 16 12 13 16 16 15 12 10 4 2 11 15 15 18 18 17 17 17 17 16 17 17 16
22 20 22 21 24 26 24 21 20 18 16 14 12 13 15 13 13 10 4 4 16 18 18 18 17 17 17 17 16 15 16 14 13
23 22 21 24 25 28 25 22 19 14 15 13 11 11 17 15 12 9 8 13 16 16 17 16 17 16 15 15 15 14 14 13 12
22 22 22 25 24 24 24 21 16 14 13 10 8 9 13 15 13 14 11 13 15 16 15 16 15 15 13 13 12 12 11 10 9
21 21 21 24 23 22 22 19 16 13 12 10 7 9 13 14 15 15 11 8 11 13 14 13 14 13 12 10 9 9 9 8 6
20 18 21 22 22 21 20 17 16 14 12 10 9 10 13 13 14 17 14 11 9 9 12 10 9 12 10 9 7 4 5 6 7
20 19 20 21 22 22 21 19 17 15 13 11 9 11 13 13 14 17 16 16 14 10 10 10 10 10 11 6 4 3 4 6 8
21 21 21 21 22 22 21 20 19 17 13 11 12 12 13 14 15 14 13 12 15 15 13 13 9 9 8 0 1 3 5 7 9
20 21 21 22 22 23 22 21 19 18 16 14 13 14 14 15 15 16 15 15 15 15 13 8 8 7 4 3 4 5 6 9 11
20 21 22 23 23 24 24 22 21 18 17 16 15 15 15 16 16 17 17 16 15 14 13 11 9 9 7 6 6 6 8 10 12
20 21 22 23 23 23 24 24 23 23 22 20 18 17 17 17 18 18 18 17 16 16 15 13 12 11 10 10 9 8 9 11 14
20 21 23 24 25 25 26 27 28 28 26 25 21 14 18 20 21 20 19 18 18 17 16 15 15 14 13 13 12 11 11 12 14
21 21 23 23 25 26 27 28 30 31 30 28 19 10 12 22 25 24 23 22 20 19 19 19 18 17 16 15 14 13 13 14 14
23 22 23 23 25 27 28 29 31 31 31 31 31 19 9 13 13 28 28 25 24 22 21 20 19 18 17 17 17 16 15 16 16
23 24 25 26 27 28 29 31 33 33 33 33 33 33 24 15 12 11 28 31 28 27 24 23 21 20 20 19 19 18 18 18 18
Wind_Direction
166 179 186 189 167 162 154 141 139 132 122 118 115 114 112 111 104 106 109 106 104 113 117 105 104 106 103 99 97 97 97 87 81
165 163 175 177 158 151 146 142 138 132 131 127 127 125 124 115 112 113 110 108 101 101 126 133 126 123 122 121 109 100 95 81 66
160 164 159 160 150 155 145 145 140 138 134 128 128 125 126 122 119 119 115 112 111 104 99 124 141 147 131 115 106 86 80 76 71
160 154 148 144 156 152 141 138 142 149 143 132 137 130 125 128 126 126 122 117 107 99 112 101 118 107 100 98 90 88 86 79 80
157 154 150 152 150 142 149 144 151 150 141 138 145 142 142 143 148 132 117 118 126 117 115 102 96 94 93 93 90 94 88 92 80
159 154 151 155 148 151 143 153 157 157 153 154 148 152 147 144 132 117 131 53 105 109 111 106 100 99 94 92 94 88 90 88 87
159 155 157 156 153 156 156 160 163 166 171 165 156 160 165 159 147 121 117 114 114 111 109 104 102 99 96 95 92 89 88 85 83
161 162 163 162 165 167 165 166 173 166 165 161 155 159 173 179 168 174 126 120 118 116 112 111 108 105 102 103 97 96 88 83 77
167 172 173 175 174 174 176 175 171 163 163 161 158 152 162 177 173 136 149 132 120 124 118 114 118 116 112 105 100 92 88 83 69
182 180 178 180 181 180 181 182 178 172 170 168 166 162 162 163 148 145 149 148 138 128 123 120 120 116 111 106 100 89 82 78 54
194 189 183 184 186 186 187 187 184 182 180 180 172 172 168 163 156 150 154 150 141 132 131 137 131 121 112 106 108 82 52 26 12
196 197 193 189 189 189 188 189 190 189 188 188 185 178 177 173 169 165 165 161 153 159 157 162 134 128 130 122 90 45 21 8 360
197 196 198 197 195 194 194 195 193 195 198 200 191 186 185 184 183 184 182 179 170 174 176 170 154 147 163 145 354 356 352 348 346
198 198 201 201 200 202 202 201 205 201 199 197 193 188 190 192 194 197 199 199 199 198 201 197 190 198 210 257 299 317 329 335 338
201 199 202 205 203 205 208 211 208 212 208 198 194 193 194 197 200 203 205 207 206 208 210 215 217 224 232 249 276 301 318 328 335
205 203 205 208 214 214 214 212 215 207 206 201 195 198 200 200 202 206 210 212 212 213 216 220 224 232 241 253 266 290 311 322 328
219 218 217 217 220 220 220 220 213 211 207 203 198 198 209 210 210 212 214 215 218 220 224 227 232 236 242 252 265 278 297 312 321
223 225 225 226 226 227 226 222 220 217 210 211 202 192 213 216 220 219 218 220 222 225 227 230 233 239 245 253 263 278 292 303 315
231 230 230 232 233 233 232 229 227 226 226 217 217 221 216 197 213 223 222 222 224 226 230 232 236 240 248 257 268 278 292 303 308
242 239 236 236 236 236 234 232 232 232 234 235 229 226 229 227 220 219 221 224 225 227 230 234 239 243 250 258 268 281 292 300 305